This demonstration page uses our WeatherBlox Daily Observations layout. Learn more.

Left ArrowRight Arrow

39.92423, -83.80882

Hourly Observations for September 4, 2018

Temp ( °F °C ) Dew Point ( °F °C ) Humidity (%) Winds ( mph kmh ) Pressure ( in mb ) Visibility ( mi km ) Precip ( " mm )
12:56 am 00:56 Clear 73 22.8 72 22.2 96 96 N N/A 30.25 1025 10 16.0934 N/A
1:56 am 01:56 Clear 71 21.7 71 21.7 100 100 N N/A 30.25 1024 10 16.0934 N/A
2:56 am 02:56 Clear 70 21.1 70 21.1 100 100 SE 3 6 30.24 1024 10 16.0934 N/A
3:56 am 03:56 Clear 70 21.1 70 21.1 100 100 N N/A 30.24 1024 10 16.0934 N/A
4:56 am 04:56 Clear 70 21.1 70 21.1 100 100 N N/A 30.23 1024 10 16.0934 N/A
5:56 am 05:56 Clear 69 20.6 69 20.6 100 100 N N/A 30.24 1024 10 16.0934 N/A
6:56 am 06:56 Clear 68 20 68 20 100 100 N N/A 30.25 1024 10 16.0934 N/A
7:56 am 07:56 Sunny 70 21.1 70 21.1 100 100 N N/A 30.27 1025 10 16.0934 N/A
8:56 am 08:56 Sunny 76 24.4 73 22.8 91 91 ESE 5 7 30.28 1025 10 16.0934 N/A
9:56 am 09:56 Sunny 82 27.8 74 23.3 77 77 SSE 3 6 30.28 1025 10 16.0934 N/A
10:56 am 10:56 Sunny 86 30 74 23.3 67 67 S 5 7 30.28 1025 10 16.0934 N/A
11:56 am 11:56 Sunny 87 30.6 73 22.8 63 63 S 6 9 30.27 1025 10 16.0934 N/A
12:56 pm 12:56 Mostly Sunny 89 31.7 73 22.8 59 59 VRB 3 6 30.26 1025 10 16.0934 N/A
1:56 pm 13:56 Partly Cloudy 89 31.7 71 21.7 55 55 N N/A 30.24 1024 10 16.0934 N/A
2:56 pm 14:56 Partly Cloudy 90 32.2 72 22.2 56 56 VRB 3 6 30.22 1024 10 16.0934 N/A
3:56 pm 15:56 Cloudy 88 31.1 71 21.7 57 57 ESE 7 11 30.2 1023 10 16.0934 N/A
4:56 pm 16:56 Mostly Sunny 91 32.8 71 21.7 52 52 SSE 7 11 30.18 1022 10 16.0934 N/A
5:56 pm 17:56 Partly Cloudy 90 32.2 71 21.7 54 54 E 5 7 30.18 1022 10 16.0934 N/A
6:56 pm 18:56 Sunny 87 30.6 72 22.2 61 61 SSW 3 6 30.17 1022 10 16.0934 N/A
7:56 pm 19:56 Sunny 83 28.3 72 22.2 70 70 N N/A 30.17 1022 10 16.0934 N/A
8:56 pm 20:56 Clear 78 25.6 72 22.2 82 82 S 5 7 30.19 1022 10 16.0934 N/A
9:56 pm 21:56 Clear 76 24.4 73 22.8 91 91 N N/A 30.2 1023 10 16.0934 N/A
10:56 pm 22:56 Clear 76 24.4 72 22.2 88 88 N N/A 30.2 1023 10 16.0934 N/A
11:56 pm 23:56 Clear 72 22.2 72 22.2 100 100 SSE 3 6 30.2 1023 10 16.0934 N/A

Powered by AerisWeather